Regional Weather Roundup
Issued by NWS

Home | Current Version | Previous Version | Graphics & Text | Print | Product List | Glossary On
Versions: 1 2 3 4 5 6 7 8 9 10 11 12 13 14 15 16 17 18 19 20 21 22 23 24 25 26 27 28 29 30 31 32 33 34 35 36 37 38 39 40 41 42 43 44 45 46 47 48 49 50
000
ASUS43 KLOT 240021
RWRIL

ILLINOIS REGIONAL WEATHER ROUNDUP
NATIONAL WEATHER SERVICE CHICAGO/ROMEOVILLE IL
700 PM CDT SAT MAY 23 2015

NOTE: "FAIR" INDICATES FEW OR NO CLOUDS BELOW 12,000 FEET WITH NO
SIGNIFICANT WEATHER AND/OR OBSTRUCTIONS TO VISIBILITY.

* THESE STATIONS ARE NOT UNDER NWS QUALITY CONTROL. THEY ALSO MAY NOT
  REPORT WEATHER SUCH AS PRECIPITATION OR FOG.

ILZ001-002-007-009-015-016-024-240100-
NORTHWEST ILLINOIS

CITY           SKY/WX    TMP DP  RH WIND       PRES   REMARKS
MOLINE         PTSUNNY   77  45  32 S10       30.14F
6HR MIN TEMP:  77; 6HR MAX TEMP:  80;

STERLING*      MOSUNNY   77  48  36 S3        30.16F
SAVANNA*       CLOUDY    78  48  35 SW7       30.15F
$$

ILZ003-004-008-010-011-017-018-240100-
NORTH CENTRAL ILLINOIS

CITY           SKY/WX    TMP DP  RH WIND       PRES   REMARKS
ROCKFORD       PTSUNNY   76  40  27 S13       30.19F
6HR MIN TEMP:  76; 6HR MAX TEMP:  80;

FREEPORT*      PTSUNNY   74  46  37 S8        30.18F
ROCHELLE*      MOSUNNY   78  45  31 SW13      30.18F
DE KALB*       MOSUNNY   75  46  35 SW9       30.19S
PERU*          PTSUNNY   78  48  34 SW9       30.18S
$$

ILZ005-006-012>014-019>023-240100-
NORTHEAST ILLINOIS

CITY           SKY/WX    TMP DP  RH WIND       PRES   REMARKS
CHICAGO-OHARE  MOSUNNY   79  38  22 S10       30.18F
6HR MIN TEMP:  76; 6HR MAX TEMP:  80;

CHICAGO-MIDWAY PTSUNNY   77  43  29 E10       30.19S
6HR MIN TEMP:  76; 6HR MAX TEMP:  83;

AURORA         SUNNY     79  43  27 S9        30.18F
6HR MIN TEMP:  78; 6HR MAX TEMP:  82;

LANSING*       MOSUNNY   75  41  28 S9        30.20S
JOLIET*        MOSUNNY   78  47  33 SW5       30.18F
WAUKEGAN       SUNNY     63  41  44 E5        30.19F
6HR MIN TEMP:  63; 6HR MAX TEMP:  71;

DUPAGE AIRPORT SUNNY     75  46  35 S6        30.18F
6HR MIN TEMP:  75; 6HR MAX TEMP:  81;

KANKAKEE*      MOSUNNY   77  48  35 S10       30.20S
WHEELING       SUNNY     74  42  31 E8        30.20F
6HR MIN TEMP:  74; 6HR MAX TEMP:  80;

MORRIS*        MOSUNNY   78  44  29 SW7       30.17F
ROMEOVILLE*    MOSUNNY   78  40  25 SW10      30.18F
NORTHERLY ISL    N/A     61  43  51 E1          N/A
$$

LMZ740>746-240100-
SOUTHERN LAKE MICHIGAN

STATION/POSITION SKY/WX   TEMP    WIND        PRES    VSBY  WAVE
                          AIR SEA DIR/SP/G                  HT/PER
                          (F)     (DEG/KT/KT) (MB)    (MI)  (FT/S)
SOUTHERN BUOY              45 38   90/  8/  8 1023.7F         0
HARRISON CRIB              57      90/ 13/ 14   N/A
BURNHAM HARBOR             61     350/  1/  6   N/A
CALUMET HARBOR             63      90/  8/ 11   N/A
BURNS HARBOR               64      80/ 11/ 12 1023.4F
MICHIGAN CITY              63      40/ 13/ 15   N/A
MICHIGAN CITY 6N           58 53   90/  8/  8   N/A           1
ST. JOSEPH                 61 55   80/  8/  8   N/A           1
$$

ILZ025>027-034>036-040-047-049-050-058-095>099-240100-
WEST-CENTRAL ILLINOIS

CITY           SKY/WX    TMP DP  RH WIND       PRES   REMARKS
QUINCY         CLOUDY    73  49  42 SE8       30.14F
GALESBURG*     PTSUNNY   74  45  35 S8        30.17S
MACOMB*        CLOUDY    76  45  33 SE9       30.18F
JACKSONVILLE*  CLOUDY    77  50  38 SE9       30.16F
PITTSFIELD*    CLOUDY    76  50  40 SE8       30.16F
$$

ILZ028>032-037-038-041>044-048-051>054-059>061-240100-
CENTRAL ILLINOIS

CITY           SKY/WX    TMP DP  RH WIND       PRES   REMARKS
PONTIAC        MOSUNNY   79  47  32 S7        30.20S
BLOOMINGTON    MOSUNNY   74  50  42 S9        30.21S
DECATUR        PTSUNNY   75  48  38 SE10      30.20F
PEORIA         CLOUDY    78  45  30 S9        30.17F
6HR MIN TEMP:  77; 6HR MAX TEMP:  81;

LACON*         MOSUNNY   75  47  37 S5        30.17F
LINCOLN*       CLOUDY    77  44  30 S7        30.17S
SPRINGFIELD    CLOUDY    76  48  37 S9        30.18F
6HR MIN TEMP:  76; 6HR MAX TEMP:  81;

TAYLORVILLE    CLOUDY    73  52  46 S8        30.19F
$$

ILZ033-039-045-046-055>057-062-063-240100-
EAST-CENTRAL ILLINOIS

CITY           SKY/WX    TMP DP  RH WIND       PRES   REMARKS
CHAMPAIGN      MOSUNNY   77  45  32 SE10      30.21F
DANVILLE*      SUNNY     76  48  36 S9        30.20S
RANTOUL*       SUNNY     79  45  29 S8        30.21S
MATTOON        PTSUNNY   73  48  41 SE8       30.21S
PARIS*         SUNNY     76  47  36 SE12      30.23S
$$

ILZ079-100>102-240100-
SOUTHWEST ILLINOIS

CITY           SKY/WX    TMP DP  RH WIND       PRES   REMARKS
ALTON          PTSUNNY   72  52  49 SE9       30.17F
BELLEVILLE     PTSUNNY   73  54  50 SE9       30.16F
CAHOKIA*       CLOUDY    75  50  41 S5        30.16F
SPARTA*        PTSUNNY   73  52  46 SE5       30.18F
$$

ILZ064>066-069>071-074>076-080>082-084>086-088>090-092>094-240100-
SOUTH-CENTRAL ILLINOIS

CITY           SKY/WX    TMP DP  RH WIND       PRES   REMARKS
CARBONDALE     CLOUDY    75  51  43 SE8       30.17F
6HR MIN TEMP:  75; 6HR MAX TEMP:  79;

CAIRO*         SUNNY     76  53  43 S7        30.18F
EFFINGHAM*     PTSUNNY   74  44  33 SE6       30.22S
MARION         PTSUNNY   75  54  46 SE7       30.19F
MT. VERNON     CLOUDY    73  48  40 E6        30.20F
CENTRALIA*     CLOUDY    74  46  37 SE6       30.19F
SALEM*         CLOUDY    77  44  30 SE6       30.19F
METROPOLIS*    MOSUNNY   77  53  44 E6        30.19S
$$

ILZ067-068-072-073-078-083-087-091-240100-
SOUTHEAST ILLINOIS

CITY           SKY/WX    TMP DP  RH WIND       PRES   REMARKS
LAWRENCEVILLE  MOSUNNY   74  48  39 SE8       30.22F
FLORA*         MOSUNNY   75  47  37 SE8       30.22S
FAIRFIELD*     CLOUDY    75  51  42 SE6       30.19F
HARRISBURG*    PTSUNNY   76  51  40 SE7       30.21F
ROBINSON*      MOSUNNY   77  46  33 SE6       30.22F
CARMI*         PTSUNNY   75  43  31 SE7       30.21F
$$

ABBREVIATIONS USED IN REMARKS
   TC - TEMPERATURE IN CELSIUS
  WCI - WIND CHILL INDEX
   HX - HEAT INDEX
  VSB - VISIBILITY
$$



USA.gov is the U.S. government's official web portal to all federal, state and local government web resources and services.